Time,TemperatureF,DewpointF,PressureIn,WindDirection,WindDirectionDegrees,WindSpeedMPH,WindSpeedGustMPH,Humidity,HourlyPrecipIn,Conditions,Clouds,dailyrainin,SolarRadiationWatts/m^2,SoftwareType,DateUTC
2013-06-25 00:02:00,67.0,53.0,-100.00,NE,49,2.0,5.0,60,0.00,,,0.00,0.000000,,2013-06-25 07:02:00,
2013-06-25 00:11:00,67.0,53.0,-100.00,NE,49,2.0,5.0,60,0.00,,,0.00,0.000000,,2013-06-25 07:11:00,
2013-06-25 00:43:00,64.0,52.0,-100.00,NNE,31,2.0,6.0,66,0.00,,,0.00,0.000000,,2013-06-25 07:43:00,
2013-06-25 00:52:00,64.0,52.0,-100.00,NNE,31,2.0,6.0,66,0.00,,,0.00,0.000000,,2013-06-25 07:52:00,
2013-06-25 01:01:00,64.0,52.0,-100.00,NNE,31,2.0,6.0,66,0.00,,,0.00,0.000000,,2013-06-25 08:01:00,
2013-06-25 01:11:00,64.0,52.0,-100.00,NNE,31,2.0,6.0,66,0.00,,,0.00,0.000000,,2013-06-25 08:11:00,
2013-06-25 01:43:00,63.0,52.0,-100.00,NE,34,2.0,3.0,67,0.00,,,0.00,0.000000,,2013-06-25 08:43:00,
2013-06-25 01:53:00,63.0,52.0,-100.00,NE,34,2.0,3.0,67,0.00,,,0.00,0.000000,,2013-06-25 08:53:00,
2013-06-25 02:02:00,63.0,52.0,-100.00,NE,34,2.0,3.0,67,0.00,,,0.00,0.000000,,2013-06-25 09:02:00,
2013-06-25 02:12:00,63.0,52.0,-100.00,NE,34,2.0,3.0,67,0.00,,,0.00,0.000000,,2013-06-25 09:12:00,
2013-06-25 02:43:00,62.0,52.0,-100.00,NE,37,3.0,4.0,69,0.00,,,0.00,0.000000,,2013-06-25 09:43:00,
2013-06-25 02:53:00,62.0,52.0,-100.00,NE,37,3.0,4.0,69,0.00,,,0.00,0.000000,,2013-06-25 09:53:00,
2013-06-25 03:01:00,62.0,52.0,-100.00,NE,37,3.0,4.0,69,0.00,,,0.00,0.000000,,2013-06-25 10:01:00,
2013-06-25 03:11:00,62.0,52.0,-100.00,NE,37,3.0,4.0,69,0.00,,,0.00,0.000000,,2013-06-25 10:11:00,
2013-06-25 03:33:00,61.0,52.0,-100.00,NNE,32,3.0,4.0,72,0.00,,,0.00,0.000000,,2013-06-25 10:33:00,
2013-06-25 03:43:00,61.0,52.0,-100.00,NNE,32,3.0,4.0,72,0.00,,,0.00,0.000000,,2013-06-25 10:43:00,
2013-06-25 03:52:00,61.0,52.0,-100.00,NNE,32,3.0,4.0,72,0.00,,,0.00,0.000000,,2013-06-25 10:52:00,
2013-06-25 04:02:00,61.0,52.0,-100.00,NNE,32,3.0,4.0,72,0.00,,,0.00,0.000000,,2013-06-25 11:02:00,
2013-06-25 04:11:00,61.0,52.0,-100.00,NNE,32,3.0,4.0,72,0.00,,,0.00,0.000000,,2013-06-25 11:11:00,
2013-06-25 04:43:00,62.0,53.0,-100.00,NE,45,3.0,5.0,73,0.00,,,0.00,0.000000,,2013-06-25 11:43:00,
2013-06-25 04:52:00,62.0,53.0,-100.00,NE,45,3.0,5.0,73,0.00,,,0.00,0.000000,,2013-06-25 11:52:00,
2013-06-25 05:01:00,62.0,53.0,-100.00,NE,45,3.0,5.0,73,0.00,,,0.00,0.000000,,2013-06-25 12:01:00,
2013-06-25 05:11:00,62.0,53.0,-100.00,NE,45,3.0,5.0,73,0.00,,,0.00,0.000000,,2013-06-25 12:11:00,
2013-06-25 05:43:00,61.0,53.0,-100.00,NE,35,3.0,7.0,75,0.00,,,0.00,0.000000,,2013-06-25 12:43:00,
2013-06-25 05:55:00,61.0,53.0,-100.00,NE,35,3.0,7.0,75,0.00,,,0.00,0.000000,,2013-06-25 12:55:00,
2013-06-25 06:01:00,61.0,53.0,-100.00,NE,35,3.0,7.0,75,0.00,,,0.00,0.000000,,2013-06-25 13:01:00,
2013-06-25 06:11:00,61.0,53.0,-100.00,NE,35,3.0,7.0,75,0.00,,,0.00,0.000000,,2013-06-25 13:11:00,
2013-06-25 06:42:00,62.0,53.0,-100.00,NE,40,3.0,5.0,73,0.00,,,0.00,5.000000,,2013-06-25 13:42:00,
2013-06-25 06:53:00,62.0,53.0,-100.00,NE,40,3.0,5.0,73,0.00,,,0.00,5.000000,,2013-06-25 13:53:00,
2013-06-25 07:01:00,62.0,53.0,-100.00,NE,40,3.0,5.0,73,0.00,,,0.00,5.000000,,2013-06-25 14:01:00,
2013-06-25 07:11:00,62.0,53.0,-100.00,NE,40,3.0,5.0,73,0.00,,,0.00,5.000000,,2013-06-25 14:11:00,
2013-06-25 07:43:00,71.0,57.0,-100.00,ENE,76,1.0,4.0,61,0.00,,,0.00,115.000000,,2013-06-25 14:43:00,
2013-06-25 07:53:00,71.0,57.0,-100.00,ENE,76,1.0,4.0,61,0.00,,,0.00,115.000000,,2013-06-25 14:53:00,
2013-06-25 08:01:00,71.0,57.0,-100.00,ENE,76,1.0,4.0,61,0.00,,,0.00,115.000000,,2013-06-25 15:01:00,
2013-06-25 08:11:00,71.0,57.0,-100.00,ENE,76,1.0,4.0,61,0.00,,,0.00,115.000000,,2013-06-25 15:11:00,
2013-06-25 08:44:00,75.0,57.0,-100.00,SSW,194,3.0,5.0,53,0.00,,,0.00,301.000000,,2013-06-25 15:44:00,
2013-06-25 08:53:00,75.0,57.0,-100.00,SSW,194,3.0,5.0,53,0.00,,,0.00,301.000000,,2013-06-25 15:53:00,
2013-06-25 09:03:00,75.0,57.0,-100.00,SSW,194,3.0,5.0,53,0.00,,,0.00,301.000000,,2013-06-25 16:03:00,
2013-06-25 09:12:00,75.0,57.0,-100.00,SSW,194,3.0,5.0,53,0.00,,,0.00,301.000000,,2013-06-25 16:12:00,
2013-06-25 09:35:00,76.0,56.0,-100.00,WSW,248,5.0,10.0,50,0.00,,,0.00,493.000000,,2013-06-25 16:35:00,
2013-06-25 09:44:00,76.0,56.0,-100.00,WSW,248,5.0,10.0,50,0.00,,,0.00,493.000000,,2013-06-25 16:44:00,
2013-06-25 09:52:00,76.0,56.0,-100.00,WSW,248,5.0,10.0,50,0.00,,,0.00,493.000000,,2013-06-25 16:52:00,
2013-06-25 10:01:00,76.0,56.0,-100.00,WSW,248,5.0,10.0,50,0.00,,,0.00,493.000000,,2013-06-25 17:01:00,
2013-06-25 10:11:00,76.0,56.0,-100.00,WSW,248,5.0,10.0,50,0.00,,,0.00,493.000000,,2013-06-25 17:11:00,
2013-06-25 10:44:00,80.0,57.0,-100.00,SW,217,4.0,10.0,46,0.00,,,0.00,674.000000,,2013-06-25 17:44:00,
2013-06-25 10:53:00,80.0,57.0,-100.00,SW,217,4.0,10.0,46,0.00,,,0.00,674.000000,,2013-06-25 17:53:00,
2013-06-25 11:02:00,80.0,57.0,-100.00,SW,217,4.0,10.0,46,0.00,,,0.00,674.000000,,2013-06-25 18:02:00,
2013-06-25 11:12:00,80.0,57.0,-100.00,SW,217,4.0,10.0,46,0.00,,,0.00,674.000000,,2013-06-25 18:12:00,
2013-06-25 11:45:00,83.0,58.0,-100.00,WSW,252,5.0,11.0,42,0.00,,,0.00,817.000000,,2013-06-25 18:45:00,
2013-06-25 11:53:00,83.0,58.0,-100.00,WSW,252,5.0,11.0,42,0.00,,,0.00,817.000000,,2013-06-25 18:53:00,
2013-06-25 12:01:00,83.0,58.0,-100.00,WSW,252,5.0,11.0,42,0.00,,,0.00,817.000000,,2013-06-25 19:01:00,
2013-06-25 12:11:00,83.0,58.0,-100.00,WSW,252,5.0,11.0,42,0.00,,,0.00,817.000000,,2013-06-25 19:11:00,
2013-06-25 12:44:00,86.0,57.0,-100.00,WSW,246,5.0,11.0,38,0.00,,,0.00,907.000000,,2013-06-25 19:44:00,
2013-06-25 12:54:00,86.0,57.0,-100.00,WSW,246,5.0,11.0,38,0.00,,,0.00,907.000000,,2013-06-25 19:54:00,
2013-06-25 13:01:00,86.0,57.0,-100.00,WSW,246,5.0,11.0,38,0.00,,,0.00,907.000000,,2013-06-25 20:01:00,
2013-06-25 13:11:00,86.0,57.0,-100.00,WSW,246,5.0,11.0,38,0.00,,,0.00,907.000000,,2013-06-25 20:11:00,
2013-06-25 13:42:00,87.0,55.0,-100.00,WSW,257,5.0,13.0,34,0.00,,,0.00,941.000000,,2013-06-25 20:42:00,
2013-06-25 13:52:00,87.0,55.0,-100.00,WSW,257,5.0,13.0,34,0.00,,,0.00,941.000000,,2013-06-25 20:52:00,
2013-06-25 14:01:00,87.0,55.0,-100.00,WSW,257,5.0,13.0,34,0.00,,,0.00,941.000000,,2013-06-25 21:01:00,
2013-06-25 14:11:00,87.0,55.0,-100.00,WSW,257,5.0,13.0,34,0.00,,,0.00,941.000000,,2013-06-25 21:11:00,
2013-06-25 14:43:00,90.0,57.0,-100.00,West,265,5.0,14.0,33,0.00,,,0.00,926.000000,,2013-06-25 21:43:00,
2013-06-25 14:53:00,90.0,57.0,-100.00,West,265,5.0,14.0,33,0.00,,,0.00,926.000000,,2013-06-25 21:53:00,
2013-06-25 15:01:00,90.0,57.0,-100.00,West,265,5.0,14.0,33,0.00,,,0.00,926.000000,,2013-06-25 22:01:00,
2013-06-25 15:11:00,90.0,57.0,-100.00,West,265,5.0,14.0,33,0.00,,,0.00,926.000000,,2013-06-25 22:11:00,
2013-06-25 15:42:00,90.0,56.0,-100.00,West,267,5.0,13.0,32,0.00,,,0.00,858.000000,,2013-06-25 22:42:00,
2013-06-25 15:52:00,90.0,56.0,-100.00,West,267,5.0,13.0,32,0.00,,,0.00,858.000000,,2013-06-25 22:52:00,
2013-06-25 16:01:00,90.0,56.0,-100.00,West,267,5.0,13.0,32,0.00,,,0.00,858.000000,,2013-06-25 23:01:00,
2013-06-25 16:11:00,90.0,56.0,-100.00,West,267,5.0,13.0,32,0.00,,,0.00,858.000000,,2013-06-25 23:11:00,
2013-06-25 16:44:00,90.0,54.0,-100.00,NW,314,6.0,12.0,30,0.00,,,0.00,730.000000,,2013-06-25 23:44:00,
2013-06-25 16:52:00,90.0,54.0,-100.00,NW,314,6.0,12.0,30,0.00,,,0.00,730.000000,,2013-06-25 23:52:00,
2013-06-25 17:01:00,90.0,54.0,-100.00,NW,314,6.0,12.0,30,0.00,,,0.00,730.000000,,2013-06-26 00:01:00,
2013-06-25 17:11:00,90.0,54.0,-100.00,NW,314,6.0,12.0,30,0.00,,,0.00,730.000000,,2013-06-26 00:11:00,
2013-06-25 18:33:00,88.0,54.0,-100.00,West,281,6.0,12.0,32,-99.99,,,0.00,372.000000,,2013-06-26 01:33:00,
2013-06-25 18:43:00,88.0,54.0,-100.00,West,281,6.0,12.0,32,-99.99,,,0.00,372.000000,,2013-06-26 01:43:00,
2013-06-25 18:53:00,88.0,54.0,-100.00,West,281,6.0,12.0,32,-99.99,,,0.00,372.000000,,2013-06-26 01:53:00,
2013-06-25 19:01:00,88.0,54.0,-100.00,West,281,6.0,12.0,32,-99.99,,,0.00,372.000000,,2013-06-26 02:01:00,
2013-06-25 19:11:00,88.0,54.0,-100.00,West,281,6.0,12.0,32,-99.99,,,0.00,372.000000,,2013-06-26 02:11:00,
2013-06-25 19:43:00,86.0,54.0,-100.00,North,358,3.0,13.0,34,0.00,,,-99.99,180.000000,,2013-06-26 02:43:00,
2013-06-25 19:53:00,86.0,54.0,-100.00,North,358,3.0,13.0,34,0.00,,,-99.99,180.000000,,2013-06-26 02:53:00,
2013-06-25 20:01:00,86.0,54.0,-100.00,North,358,3.0,13.0,34,0.00,,,-99.99,180.000000,,2013-06-26 03:01:00,
2013-06-25 20:11:00,86.0,54.0,-100.00,North,358,3.0,13.0,34,0.00,,,-99.99,180.000000,,2013-06-26 03:11:00,
2013-06-25 20:33:00,81.0,56.0,-100.00,NW,312,3.0,9.0,42,0.00,,,0.00,15.000000,,2013-06-26 03:33:00,
2013-06-25 20:43:00,81.0,56.0,-100.00,NW,312,3.0,9.0,42,0.00,,,0.00,15.000000,,2013-06-26 03:43:00,
2013-06-25 20:52:00,81.0,56.0,-100.00,NW,312,3.0,9.0,42,0.00,,,0.00,15.000000,,2013-06-26 03:52:00,
2013-06-25 21:01:00,81.0,56.0,-100.00,NW,312,3.0,9.0,42,0.00,,,0.00,15.000000,,2013-06-26 04:01:00,
2013-06-25 21:11:00,81.0,56.0,-100.00,NW,312,3.0,9.0,42,0.00,,,0.00,15.000000,,2013-06-26 04:11:00,
2013-06-25 21:33:00,79.0,56.0,-100.00,SE,127,1.0,6.0,45,0.00,,,0.00,1.000000,,2013-06-26 04:33:00,
2013-06-25 21:43:00,79.0,56.0,-100.00,SE,127,1.0,6.0,45,0.00,,,0.00,1.000000,,2013-06-26 04:43:00,
2013-06-25 21:53:00,79.0,56.0,-100.00,SE,127,1.0,6.0,45,0.00,,,0.00,1.000000,,2013-06-26 04:53:00,
2013-06-25 22:02:00,79.0,56.0,-100.00,SE,127,1.0,6.0,45,0.00,,,0.00,1.000000,,2013-06-26 05:02:00,
2013-06-25 22:11:00,79.0,56.0,-100.00,SE,127,1.0,6.0,45,0.00,,,0.00,1.000000,,2013-06-26 05:11:00,
2013-06-25 22:43:00,76.0,55.0,-100.00,NE,50,4.0,7.0,49,0.00,,,0.00,0.000000,,2013-06-26 05:43:00,
2013-06-25 22:52:00,76.0,55.0,-100.00,NE,50,4.0,7.0,49,0.00,,,0.00,0.000000,,2013-06-26 05:52:00,
2013-06-25 23:01:00,76.0,55.0,-100.00,NE,50,4.0,7.0,49,0.00,,,0.00,0.000000,,2013-06-26 06:01:00,
2013-06-25 23:11:00,76.0,55.0,-100.00,NE,50,4.0,7.0,49,0.00,,,0.00,0.000000,,2013-06-26 06:11:00,
2013-06-25 23:44:00,73.0,55.0,-100.00,NE,38,3.0,5.0,54,0.00,,,0.00,0.000000,,2013-06-26 06:44:00,
2013-06-25 23:53:00,73.0,55.0,-100.00,NE,38,3.0,5.0,54,0.00,,,0.00,0.000000,,2013-06-26 06:53:00,